Location: Unspecified
(0.0000°N, 0.0000°E)
Time: 05:40:54
(UTC+00:00)

Amsat-Oscar-6 - Visible Passes

Search period start: 26 April 2019 00:00
Search period end: 06 May 2019 00:00
Orbit: 1448 x 1455 km, 101.8° (Epoch: 25 April)

Date Brightness Start Highest point End Pass type
(mag) Time Alt. Az. Time Alt. Az. Time Alt. Az.
26 Apr ? 03:25:39 10° N 03:32:59 69° NNW 03:32:59 69° NNW visible
27 Apr ? 02:27:17 10° NE 02:32:35 33° ENE 02:32:35 33° ENE visible
27 Apr ? 04:20:23 10° NNW 04:27:13 29° WNW 04:27:32 29° WNW visible
28 Apr ? 03:19:45 10° NNE 03:27:08 73° N 03:27:08 73° N visible
29 Apr ? 02:21:39 10° NE 02:26:43 30° ENE 02:26:43 30° ENE visible
29 Apr ? 04:14:13 10° NNW 04:21:20 32° WNW 04:21:41 32° WNW visible
30 Apr ? 03:13:52 10° NNE 03:21:16 74° NNE 03:21:16 74° NNE visible
01 May ? 02:16:03 10° NE 02:20:51 27° E 02:20:51 27° E visible
01 May ? 04:08:06 10° N 04:15:28 36° WNW 04:15:49 36° WNW visible
02 May ? 03:07:59 10° NNE 03:15:23 72° NE 03:15:23 72° NE visible
02 May ? 05:06:17 10° NW 05:08:37 11° WNW 05:10:21 11° W visible
03 May ? 02:10:30 10° NE 02:14:58 24° E 02:14:58 24° E visible
03 May ? 04:02:00 10° N 04:09:35 41° WNW 04:09:56 40° W visible
04 May ? 03:02:09 10° NNE 03:09:30 67° ENE 03:09:30 67° ENE visible
04 May ? 04:59:11 10° NW 05:02:45 13° WNW 05:04:28 13° W visible
05 May ? 02:05:01 10° ENE 02:09:04 22° E 02:09:04 22° E visible
05 May ? 03:55:56 10° N 04:03:42 45° WNW 04:04:02 45° W visible
